Find Starlink 31846

NORAD ID: 60126 Int'l Des: 2024-118 Owner: SPXS Country: US Constellation: starlink operational
LEOCIRCULAR

当前视图

正在加载3D地球...

About Starlink 31846

Starlink 31846 (NORAD 60126) is a starlink constellation satellite (v2 mini) launched Jun 24, 2024 by SPXS of US. It operates in LEO, CIRCULAR orbit with a mass of 730.00 kg.

即将过境

Passes for default location (London). Set your location on the main map for personalized predictions.

高度历史

Loading altitude history...

两行轨道根数

1 60126U 24118P 26265.08540944 .00000364 00000-0 23494-4 0 9995
2 60126 53.1611 193.1924 0001501 62.8691 297.2464 15.31707352125783
Epoch: Sep 22, 2026 • Age: 27 hours

当前状态

高度 474.1 km
远地点 / 近地点 N/A
速度 7.63 km/s
星下点 41.45°N, 113.48°W
发射日期 Jun 24, 2024
运行时间 2.2 years
类型 internet

技术详情

分类 Payload
质量 730.00 kg
干质量 700.00 kg
长度 0.30 m
跨度 29.00 m
形状 ? Box + pan
制造商 SPXS
平台类型 Starlink V2M
阶段状态 In Orbit
所有者/国家 SPXS/US

Most Searched